Location: ?kun?ru
(16.3916°N, 80.8194°E)
Time: 14:25:46
(UTC+00:00)

ARIANE 6 FM1 Upper Stage - Pass Details

Date: 19 May 2025
Orbit: 531 x 610 km, 62.0° (Epoch: 17 June)

Event Time Altitude Azimuth Distance (km) Brightness Sun altitude
Rises 13:42:53 0° 203° (SSW) 2,688 6.1 -10.0°
Reaches altitude 10° 13:45:06 10° 202° (SSW) 1,788 5.2 -10.5°
Maximum altitude 13:49:06 79° 116° (ESE) 545 2.4 -11.4°
Drops below altitude 10° 13:53:04 10° 29° (NNE) 1,771 5.2 -12.2°
Sets 13:55:15 0° 28° (NNE) 2,660 6.1 -12.7°
